Wetterdaten: Montag, 18.01.2016
Datum Zeit Temperatur Luftfeuchte Luftdruck Regen Wind Richtung Richtung Sonnenschein ET UV Solar Taupunkt Windchill Windben
18.01.2016 00:00 -3,9 C 89 % 1026,2 hPa 0,0 l/m 0,0 km/h (0 Bft) NW 315 0 min 0,000 mm 0,0 UV-I 0 W/m -5,4 C -3,9 C 0,0 km/h (0 Bft)
18.01.2016 00:05 -3,9 C 89 % 1026,2 hPa 0,0 l/m 0,0 km/h (0 Bft) NW 315 0 min 0,000 mm 0,0 UV-I 0 W/m -5,4 C -3,9 C 0,0 km/h (0 Bft)
18.01.2016 00:10 -4,2 C 89 % 1026,3 hPa 0,0 l/m 0,0 km/h (0 Bft) NW 315 0 min 0,000 mm 0,0 UV-I 0 W/m -5,7 C -4,2 C 0,0 km/h (0 Bft)
18.01.2016 00:15 -4,3 C 90 % 1026,2 hPa 0,0 l/m 0,0 km/h (0 Bft) NW 315 0 min 0,000 mm 0,0 UV-I 0 W/m -5,7 C -4,3 C 0,0 km/h (0 Bft)
18.01.2016 00:20 -4,3 C 90 % 1026,1 hPa 0,0 l/m 0,0 km/h (0 Bft) NW 315 0 min 0,000 mm 0,0 UV-I 0 W/m -5,7 C -4,3 C 0,0 km/h (0 Bft)
18.01.2016 00:25 -4,3 C 90 % 1026,0 hPa 0,0 l/m 0,0 km/h (0 Bft) NW 315 0 min 0,000 mm 0,0 UV-I 0 W/m -5,7 C -4,3 C 0,0 km/h (0 Bft)
18.01.2016 00:30 -4,3 C 90 % 1026,1 hPa 0,0 l/m 0,0 km/h (0 Bft) NW 315 0 min 0,000 mm 0,0 UV-I 0 W/m -5,7 C -4,3 C 0,0 km/h (0 Bft)
18.01.2016 00:35 -4,4 C 90 % 1026,0 hPa 0,0 l/m 0,0 km/h (0 Bft) NW 315 0 min 0,000 mm 0,0 UV-I 0 W/m -5,8 C -4,4 C 0,0 km/h (0 Bft)
18.01.2016 00:40 -4,4 C 90 % 1026,0 hPa 0,0 l/m 0,0 km/h (0 Bft) NW 315 0 min 0,000 mm 0,0 UV-I 0 W/m -5,8 C -4,4 C 0,0 km/h (0 Bft)
18.01.2016 00:45 -4,6 C 89 % 1026,0 hPa 0,0 l/m 0,0 km/h (0 Bft) NW 315 0 min 0,000 mm 0,0 UV-I 0 W/m -6,1 C -4,6 C 0,0 km/h (0 Bft)
18.01.2016 00:50 -4,7 C 89 % 1026,0 hPa 0,0 l/m 0,0 km/h (0 Bft) NW 315 0 min 0,000 mm 0,0 UV-I 0 W/m -6,2 C -4,7 C 0,0 km/h (0 Bft)
18.01.2016 00:55 -4,8 C 89 % 1025,9 hPa 0,0 l/m 0,0 km/h (0 Bft) NW 315 0 min 0,000 mm 0,0 UV-I 0 W/m -6,3 C -4,8 C 0,0 km/h (0 Bft)
18.01.2016 01:00 -4,8 C 89 % 1025,9 hPa 0,0 l/m 0,0 km/h (0 Bft) NW 315 0 min 0,000 mm 0,0 UV-I 0 W/m -6,3 C -4,8 C 0,0 km/h (0 Bft)
18.01.2016 01:05 -4,9 C 89 % 1025,9 hPa 0,0 l/m 0,0 km/h (0 Bft) NW 315 0 min 0,000 mm 0,0 UV-I 0 W/m -6,4 C -4,9 C 0,0 km/h (0 Bft)
18.01.2016 01:10 -5,1 C 89 % 1025,9 hPa 0,0 l/m 0,0 km/h (0 Bft) NW 315 0 min 0,000 mm 0,0 UV-I 0 W/m -6,6 C -5,1 C 0,0 km/h (0 Bft)
18.01.2016 01:15 -5,2 C 89 % 1025,9 hPa 0,0 l/m 0,0 km/h (0 Bft) NW 315 0 min 0,000 mm 0,0 UV-I 0 W/m -6,7 C -5,2 C 0,0 km/h (0 Bft)
18.01.2016 01:20 -5,3 C 89 % 1025,8 hPa 0,0 l/m 0,0 km/h (0 Bft) NW 315 0 min 0,000 mm 0,0 UV-I 0 W/m -6,8 C -5,3 C 0,0 km/h (0 Bft)
18.01.2016 01:25 -5,4 C 89 % 1025,8 hPa 0,0 l/m 0,0 km/h (0 Bft) NW 315 0 min 0,000 mm 0,0 UV-I 0 W/m -6,9 C -5,4 C 0,0 km/h (0 Bft)
18.01.2016 01:30 -5,5 C 89 % 1025,8 hPa 0,0 l/m 0,0 km/h (0 Bft) NW 315 0 min 0,000 mm 0,0 UV-I 0 W/m -7,0 C -5,5 C 0,0 km/h (0 Bft)
18.01.2016 01:35 -5,6 C 89 % 1025,8 hPa 0,0 l/m 0,0 km/h (0 Bft) NW 315 0 min 0,000 mm 0,0 UV-I 0 W/m -7,1 C -5,6 C 0,0 km/h (0 Bft)
18.01.2016 01:40 -5,7 C 89 % 1025,8 hPa 0,0 l/m 0,0 km/h (0 Bft) NW 315 0 min 0,000 mm 0,0 UV-I 0 W/m -7,2 C -5,7 C 0,0 km/h (0 Bft)
18.01.2016 01:45 -5,8 C 90 % 1025,8 hPa 0,0 l/m 0,0 km/h (0 Bft) NW 315 0 min 0,000 mm 0,0 UV-I 0 W/m -7,2 C -5,8 C 0,0 km/h (0 Bft)
18.01.2016 01:50 -5,8 C 90 % 1025,7 hPa 0,0 l/m 0,0 km/h (0 Bft) NW 315 0 min 0,000 mm 0,0 UV-I 0 W/m -7,2 C -5,8 C 0,0 km/h (0 Bft)
18.01.2016 01:55 -6,0 C 90 % 1025,7 hPa 0,0 l/m 0,0 km/h (0 Bft) NW 315 0 min 0,000 mm 0,0 UV-I 0 W/m -7,4 C -6,0 C 0,0 km/h (0 Bft)
18.01.2016 02:00 -6,1 C 90 % 1025,7 hPa 0,0 l/m 0,0 km/h (0 Bft) NW 315 0 min 0,000 mm 0,0 UV-I 0 W/m -7,5 C -6,1 C 0,0 km/h (0 Bft)
18.01.2016 02:05 -6,3 C 90 % 1025,6 hPa 0,0 l/m 0,0 km/h (0 Bft) NW 315 0 min 0,000 mm 0,0 UV-I 0 W/m -7,7 C -6,3 C 0,0 km/h (0 Bft)
18.01.2016 02:10 -6,4 C 91 % 1025,6 hPa 0,0 l/m 0,0 km/h (0 Bft) NW 315 0 min 0,000 mm 0,0 UV-I 0 W/m -7,6 C -6,4 C 0,0 km/h (0 Bft)
18.01.2016 02:15 -6,4 C 91 % 1025,6 hPa 0,0 l/m 0,0 km/h (0 Bft) NW 315 0 min 0,000 mm 0,0 UV-I 0 W/m -7,6 C -6,4 C 0,0 km/h (0 Bft)
18.01.2016 02:20 -6,5 C 91 % 1025,6 hPa 0,0 l/m 0,0 km/h (0 Bft) NW 315 0 min 0,000 mm 0,0 UV-I 0 W/m -7,7 C -6,5 C 0,0 km/h (0 Bft)
18.01.2016 02:25 -6,6 C 91 % 1025,5 hPa 0,0 l/m 0,0 km/h (0 Bft) NW 315 0 min 0,000 mm 0,0 UV-I 0 W/m -7,8 C -6,6 C 0,0 km/h (0 Bft)
18.01.2016 02:30 -6,7 C 90 % 1025,5 hPa 0,0 l/m 0,0 km/h (0 Bft) NW 315 0 min 0,000 mm 0,0 UV-I 0 W/m -8,1 C -6,7 C 0,0 km/h (0 Bft)
18.01.2016 02:35 -6,8 C 90 % 1025,5 hPa 0,0 l/m 0,0 km/h (0 Bft) NW 315 0 min 0,000 mm 0,0 UV-I 0 W/m -8,2 C -6,8 C 0,0 km/h (0 Bft)
18.01.2016 02:40 -6,9 C 90 % 1025,4 hPa 0,0 l/m 0,0 km/h (0 Bft) NW 315 0 min 0,000 mm 0,0 UV-I 0 W/m -8,3 C -6,9 C 0,0 km/h (0 Bft)
18.01.2016 02:45 -7,1 C 90 % 1025,5 hPa 0,0 l/m 0,0 km/h (0 Bft) NW 315 0 min 0,000 mm 0,0 UV-I 0 W/m -8,5 C -7,1 C 0,0 km/h (0 Bft)
18.01.2016 02:50 -7,1 C 91 % 1025,4 hPa 0,0 l/m 0,0 km/h (0 Bft) NW 315 0 min 0,000 mm 0,0 UV-I 0 W/m -8,3 C -7,1 C 0,0 km/h (0 Bft)
18.01.2016 02:55 -7,2 C 91 % 1025,3 hPa 0,0 l/m 0,0 km/h (0 Bft) NW 315 0 min 0,000 mm 0,0 UV-I 0 W/m -8,4 C -7,2 C 0,0 km/h (0 Bft)
18.01.2016 03:00 -7,2 C 91 % 1025,4 hPa 0,0 l/m 0,0 km/h (0 Bft) NW 315 0 min 0,000 mm 0,0 UV-I 0 W/m -8,4 C -7,2 C 0,0 km/h (0 Bft)
18.01.2016 03:05 -7,3 C 91 % 1025,4 hPa 0,0 l/m 0,0 km/h (0 Bft) NW 315 0 min 0,000 mm 0,0 UV-I 0 W/m -8,5 C -7,3 C 0,0 km/h (0 Bft)
18.01.2016 03:10 -7,4 C 90 % 1025,4 hPa 0,0 l/m 0,0 km/h (0 Bft) NW 315 0 min 0,000 mm 0,0 UV-I 0 W/m -8,8 C -7,4 C 0,0 km/h (0 Bft)
18.01.2016 03:15 -7,5 C 90 % 1025,3 hPa 0,0 l/m 0,0 km/h (0 Bft) NW 315 0 min 0,000 mm 0,0 UV-I 0 W/m -8,8 C -7,5 C 0,0 km/h (0 Bft)
18.01.2016 03:20 -7,6 C 91 % 1025,4 hPa 0,0 l/m 0,0 km/h (0 Bft) NW 315 0 min 0,000 mm 0,0 UV-I 0 W/m -8,8 C -7,6 C 0,0 km/h (0 Bft)
18.01.2016 03:25 -7,7 C 91 % 1025,3 hPa 0,0 l/m 0,0 km/h (0 Bft) NW 315 0 min 0,000 mm 0,0 UV-I 0 W/m -8,9 C -7,7 C 0,0 km/h (0 Bft)
18.01.2016 03:30 -7,7 C 91 % 1025,3 hPa 0,0 l/m 0,0 km/h (0 Bft) NW 315 0 min 0,000 mm 0,0 UV-I 0 W/m -8,9 C -7,7 C 0,0 km/h (0 Bft)
18.01.2016 03:35 -7,8 C 91 % 1025,2 hPa 0,0 l/m 0,0 km/h (0 Bft) NW 315 0 min 0,000 mm 0,0 UV-I 0 W/m -9,0 C -7,8 C 0,0 km/h (0 Bft)
18.01.2016 03:40 -7,8 C 91 % 1025,2 hPa 0,0 l/m 0,0 km/h (0 Bft) NW 315 0 min 0,000 mm 0,0 UV-I 0 W/m -9,0 C -7,8 C 0,0 km/h (0 Bft)
18.01.2016 03:45 -7,9 C 91 % 1025,1 hPa 0,0 l/m 0,0 km/h (0 Bft) NW 315 0 min 0,000 mm 0,0 UV-I 0 W/m -9,1 C -7,9 C 0,0 km/h (0 Bft)
18.01.2016 03:50 -8,0 C 91 % 1024,9 hPa 0,0 l/m 0,0 km/h (0 Bft) NW 315 0 min 0,000 mm 0,0 UV-I 0 W/m -9,2 C -8,0 C 0,0 km/h (0 Bft)
18.01.2016 03:55 -8,0 C 91 % 1025,0 hPa 0,0 l/m 0,0 km/h (0 Bft) NW 315 0 min 0,000 mm 0,0 UV-I 0 W/m -9,2 C -8,0 C 0,0 km/h (0 Bft)
18.01.2016 04:00 -8,1 C 90 % 1024,8 hPa 0,0 l/m 0,0 km/h (0 Bft) NW 315 0 min 0,000 mm 0,0 UV-I 0 W/m -9,4 C -8,1 C 0,0 km/h (0 Bft)
18.01.2016 04:05 -8,3 C 89 % 1024,8 hPa 0,0 l/m 0,0 km/h (0 Bft) NW 315 0 min 0,000 mm 0,0 UV-I 0 W/m -9,8 C -8,3 C 0,0 km/h (0 Bft)
18.01.2016 04:10 -8,4 C 90 % 1024,7 hPa 0,0 l/m 0,0 km/h (0 Bft) NW 315 0 min 0,000 mm 0,0 UV-I 0 W/m -9,7 C -8,4 C 0,0 km/h (0 Bft)
18.01.2016 04:15 -8,4 C 90 % 1024,7 hPa 0,0 l/m 0,0 km/h (0 Bft) NW 315 0 min 0,000 mm 0,0 UV-I 0 W/m -9,7 C -8,4 C 0,0 km/h (0 Bft)
18.01.2016 04:20 -8,6 C 89 % 1024,6 hPa 0,0 l/m 0,0 km/h (0 Bft) NW 315 0 min 0,000 mm 0,0 UV-I 0 W/m -10,1 C -8,6 C 0,0 km/h (0 Bft)
18.01.2016 04:25 -8,7 C 90 % 1024,7 hPa 0,0 l/m 0,0 km/h (0 Bft) NW 315 0 min 0,000 mm 0,0 UV-I 0 W/m -10,0 C -8,7 C 0,0 km/h (0 Bft)
18.01.2016 04:30 -8,7 C 90 % 1024,6 hPa 0,0 l/m 0,0 km/h (0 Bft) NW 315 0 min 0,000 mm 0,0 UV-I 0 W/m -10,0 C -8,7 C 0,0 km/h (0 Bft)
18.01.2016 04:35 -8,8 C 91 % 1024,6 hPa 0,0 l/m 0,0 km/h (0 Bft) NW 315 0 min 0,000 mm 0,0 UV-I 0 W/m -10,0 C -8,8 C 0,0 km/h (0 Bft)
18.01.2016 04:40 -8,8 C 91 % 1024,6 hPa 0,0 l/m 0,0 km/h (0 Bft) NW 315 0 min 0,000 mm 0,0 UV-I 0 W/m -10,0 C -8,8 C 0,0 km/h (0 Bft)
18.01.2016 04:45 -8,8 C 91 % 1024,5 hPa 0,0 l/m 0,0 km/h (0 Bft) NW 315 0 min 0,000 mm 0,0 UV-I 0 W/m -10,0 C -8,8 C 0,0 km/h (0 Bft)
18.01.2016 04:50 -8,8 C 91 % 1024,5 hPa 0,0 l/m 0,0 km/h (0 Bft) NW 315 0 min 0,000 mm 0,0 UV-I 0 W/m -10,0 C -8,8 C 0,0 km/h (0 Bft)
18.01.2016 04:55 -8,9 C 91 % 1024,5 hPa 0,0 l/m 0,0 km/h (0 Bft) NW 315 0 min 0,000 mm 0,0 UV-I 0 W/m -10,1 C -8,9 C 0,0 km/h (0 Bft)
18.01.2016 05:00 -9,0 C 91 % 1024,4 hPa 0,0 l/m 0,0 km/h (0 Bft) NW 315 0 min 0,000 mm 0,0 UV-I 0 W/m -10,2 C -9,0 C 0,0 km/h (0 Bft)
18.01.2016 05:05 -9,0 C 91 % 1024,4 hPa 0,0 l/m 0,0 km/h (0 Bft) NW 315 0 min 0,000 mm 0,0 UV-I 0 W/m -10,2 C -9,0 C 0,0 km/h (0 Bft)
18.01.2016 05:10 -9,1 C 90 % 1024,4 hPa 0,0 l/m 0,0 km/h (0 Bft) NW 315 0 min 0,000 mm 0,0 UV-I 0 W/m -10,4 C -9,1 C 0,0 km/h (0 Bft)
18.01.2016 05:15 -9,1 C 90 % 1024,3 hPa 0,0 l/m 0,0 km/h (0 Bft) NW 315 0 min 0,000 mm 0,0 UV-I 0 W/m -10,4 C -9,1 C 0,0 km/h (0 Bft)
18.01.2016 05:20 -9,2 C 90 % 1024,4 hPa 0,0 l/m 0,0 km/h (0 Bft) NW 315 0 min 0,000 mm 0,0 UV-I 0 W/m -10,5 C -9,2 C 0,0 km/h (0 Bft)
18.01.2016 05:25 -9,2 C 90 % 1024,3 hPa 0,0 l/m 0,0 km/h (0 Bft) NW 315 0 min 0,000 mm 0,0 UV-I 0 W/m -10,5 C -9,2 C 0,0 km/h (0 Bft)
18.01.2016 05:30 -9,1 C 91 % 1024,3 hPa 0,0 l/m 0,0 km/h (0 Bft) NW 315 0 min 0,000 mm 0,0 UV-I 0 W/m -10,3 C -9,1 C 0,0 km/h (0 Bft)
18.01.2016 05:35 -9,1 C 91 % 1024,2 hPa 0,0 l/m 0,0 km/h (0 Bft) NW 315 0 min 0,000 mm 0,0 UV-I 0 W/m -10,3 C -9,1 C 0,0 km/h (0 Bft)
18.01.2016 05:40 -9,0 C 91 % 1024,2 hPa 0,0 l/m 0,0 km/h (0 Bft) NW 315 0 min 0,000 mm 0,0 UV-I 0 W/m -10,2 C -9,0 C 0,0 km/h (0 Bft)
18.01.2016 05:45 -9,0 C 91 % 1024,2 hPa 0,0 l/m 0,0 km/h (0 Bft) NW 315 0 min 0,000 mm 0,0 UV-I 0 W/m -10,2 C -9,0 C 0,0 km/h (0 Bft)
18.01.2016 05:50 -9,1 C 91 % 1024,2 hPa 0,0 l/m 0,0 km/h (0 Bft) NW 315 0 min 0,000 mm 0,0 UV-I 0 W/m -10,3 C -9,1 C 0,0 km/h (0 Bft)
18.01.2016 05:55 -9,2 C 91 % 1024,1 hPa 0,0 l/m 0,0 km/h (0 Bft) NW 315 0 min 0,000 mm 0,0 UV-I 0 W/m -10,4 C -9,2 C 0,0 km/h (0 Bft)
18.01.2016 06:00 -9,2 C 92 % 1024,1 hPa 0,0 l/m 0,0 km/h (0 Bft) NW 315 0 min 0,000 mm 0,0 UV-I 0 W/m -10,3 C -9,2 C 0,0 km/h (0 Bft)
18.01.2016 06:05 -9,3 C 92 % 1024,1 hPa 0,0 l/m 0,0 km/h (0 Bft) NW 315 0 min 0,000 mm 0,0 UV-I 0 W/m -10,4 C -9,3 C 0,0 km/h (0 Bft)
18.01.2016 06:10 -9,3 C 92 % 1024,1 hPa 0,0 l/m 0,0 km/h (0 Bft) NW 315 0 min 0,000 mm 0,0 UV-I 0 W/m -10,4 C -9,3 C 0,0 km/h (0 Bft)
18.01.2016 06:15 -9,2 C 92 % 1024,1 hPa 0,0 l/m 0,0 km/h (0 Bft) NW 315 0 min 0,000 mm 0,0 UV-I 0 W/m -10,3 C -9,2 C 0,0 km/h (0 Bft)
18.01.2016 06:20 -9,2 C 92 % 1024,0 hPa 0,0 l/m 0,0 km/h (0 Bft) NW 315 0 min 0,000 mm 0,0 UV-I 0 W/m -10,3 C -9,2 C 0,0 km/h (0 Bft)
18.01.2016 06:25 -9,3 C 92 % 1024,0 hPa 0,0 l/m 0,0 km/h (0 Bft) NW 315 0 min 0,000 mm 0,0 UV-I 0 W/m -10,4 C -9,3 C 0,0 km/h (0 Bft)
18.01.2016 06:30 -9,3 C 92 % 1024,1 hPa 0,0 l/m 0,0 km/h (0 Bft) NW 315 0 min 0,000 mm 0,0 UV-I 0 W/m -10,4 C -9,3 C 0,0 km/h (0 Bft)
18.01.2016 06:35 -9,3 C 92 % 1024,1 hPa 0,0 l/m 0,0 km/h (0 Bft) NW 315 0 min 0,000 mm 0,0 UV-I 0 W/m -10,4 C -9,3 C 0,0 km/h (0 Bft)
18.01.2016 06:40 -9,4 C 92 % 1024,1 hPa 0,0 l/m 0,0 km/h (0 Bft) NW 315 0 min 0,000 mm 0,0 UV-I 0 W/m -10,5 C -9,4 C 0,0 km/h (0 Bft)
18.01.2016 06:45 -9,4 C 92 % 1024,2 hPa 0,0 l/m 0,0 km/h (0 Bft) NW 315 0 min 0,000 mm 0,0 UV-I 0 W/m -10,5 C -9,4 C 0,0 km/h (0 Bft)
18.01.2016 06:50 -9,3 C 92 % 1024,2 hPa 0,0 l/m 0,0 km/h (0 Bft) NW 315 0 min 0,000 mm 0,0 UV-I 0 W/m -10,4 C -9,3 C 0,0 km/h (0 Bft)
18.01.2016 06:55 -9,3 C 92 % 1024,1 hPa 0,0 l/m 0,0 km/h (0 Bft) NW 315 0 min 0,000 mm 0,0 UV-I 0 W/m -10,4 C -9,3 C 0,0 km/h (0 Bft)
18.01.2016 07:00 -9,4 C 91 % 1024,2 hPa 0,0 l/m 0,0 km/h (0 Bft) NW 315 0 min 0,000 mm 0,0 UV-I 0 W/m -10,6 C -9,4 C 0,0 km/h (0 Bft)
18.01.2016 07:05 -9,4 C 91 % 1024,2 hPa 0,0 l/m 0,0 km/h (0 Bft) NW 315 0 min 0,000 mm 0,0 UV-I 0 W/m -10,6 C -9,4 C 0,0 km/h (0 Bft)
18.01.2016 07:10 -9,4 C 92 % 1024,1 hPa 0,0 l/m 0,0 km/h (0 Bft) NW 315 0 min 0,000 mm 0,0 UV-I 0 W/m -10,5 C -9,4 C 0,0 km/h (0 Bft)
18.01.2016 07:15 -9,5 C 92 % 1024,1 hPa 0,0 l/m 0,0 km/h (0 Bft) NW 315 0 min 0,000 mm 0,0 UV-I 0 W/m -10,6 C -9,5 C 0,0 km/h (0 Bft)
18.01.2016 07:20 -9,5 C 92 % 1024,1 hPa 0,0 l/m 0,0 km/h (0 Bft) NW 315 0 min 0,000 mm 0,0 UV-I 0 W/m -10,6 C -9,5 C 0,0 km/h (0 Bft)
18.01.2016 07:25 -9,6 C 91 % 1024,1 hPa 0,0 l/m 0,0 km/h (0 Bft) NW 315 0 min 0,000 mm 0,0 UV-I 0 W/m -10,8 C -9,6 C 0,0 km/h (0 Bft)
18.01.2016 07:30 -9,6 C 91 % 1024,1 hPa 0,0 l/m 0,0 km/h (0 Bft) NW 315 0 min 0,000 mm 0,0 UV-I 0 W/m -10,8 C -9,6 C 0,0 km/h (0 Bft)
18.01.2016 07:35 -9,7 C 91 % 1024,1 hPa 0,0 l/m 0,0 km/h (0 Bft) NW 315 0 min 0,000 mm 0,0 UV-I 0 W/m -10,9 C -9,7 C 0,0 km/h (0 Bft)
18.01.2016 07:40 -9,7 C 90 % 1024,2 hPa 0,0 l/m 0,0 km/h (0 Bft) NW 315 0 min 0,000 mm 0,0 UV-I 0 W/m -11,0 C -9,7 C 0,0 km/h (0 Bft)
18.01.2016 07:45 -9,9 C 90 % 1024,1 hPa 0,0 l/m 0,0 km/h (0 Bft) NW 315 0 min 0,000 mm 0,0 UV-I 0 W/m -11,2 C -9,9 C 0,0 km/h (0 Bft)
18.01.2016 07:50 -10,0 C 90 % 1024,1 hPa 0,0 l/m 0,0 km/h (0 Bft) NW 315 0 min 0,000 mm 0,0 UV-I 0 W/m -11,3 C -10,0 C 0,0 km/h (0 Bft)
18.01.2016 07:55 -10,1 C 90 % 1024,1 hPa 0,0 l/m 0,0 km/h (0 Bft) NW 315 0 min 0,000 mm 0,0 UV-I 0 W/m -11,4 C -10,1 C 0,0 km/h (0 Bft)
18.01.2016 08:00 -10,2 C 90 % 1024,1 hPa 0,0 l/m 0,0 km/h (0 Bft) NW 315 0 min 0,000 mm 0,0 UV-I 0 W/m -11,5 C -10,2 C 0,0 km/h (0 Bft)
18.01.2016 08:05 -10,3 C 90 % 1024,1 hPa 0,0 l/m 0,0 km/h (0 Bft) NW 315 0 min 0,000 mm 0,0 UV-I 0 W/m -11,6 C -10,3 C 0,0 km/h (0 Bft)
18.01.2016 08:10 -10,4 C 90 % 1024,2 hPa 0,0 l/m 0,0 km/h (0 Bft) NW 315 0 min 0,000 mm 0,0 UV-I 0 W/m -11,7 C -10,4 C 0,0 km/h (0 Bft)
18.01.2016 08:15 -10,4 C 91 % 1024,2 hPa 0,0 l/m 0,0 km/h (0 Bft) NW 315 0 min 0,000 mm 0,0 UV-I 0 W/m -11,6 C -10,4 C 0,0 km/h (0 Bft)
18.01.2016 08:20 -10,4 C 91 % 1024,2 hPa 0,0 l/m 0,0 km/h (0 Bft) NW 315 0 min 0,000 mm 0,0 UV-I 0 W/m -11,6 C -10,4 C 0,0 km/h (0 Bft)
18.01.2016 08:25 -10,4 C 91 % 1024,1 hPa 0,0 l/m 0,0 km/h (0 Bft) NW 315 0 min 0,000 mm 0,0 UV-I 2 W/m -11,6 C -10,4 C 0,0 km/h (0 Bft)
18.01.2016 08:30 -10,4 C 91 % 1024,1 hPa 0,0 l/m 0,0 km/h (0 Bft) NW 315 0 min 0,000 mm 0,0 UV-I 6 W/m -11,6 C -10,4 C 0,0 km/h (0 Bft)
18.01.2016 08:35 -10,4 C 91 % 1024,1 hPa 0,0 l/m 0,0 km/h (0 Bft) NW 315 0 min 0,000 mm 0,0 UV-I 9 W/m -11,6 C -10,4 C 0,0 km/h (0 Bft)
18.01.2016 08:40 -10,5 C 91 % 1024,1 hPa 0,0 l/m 0,0 km/h (0 Bft) NW 315 0 min 0,000 mm 0,0 UV-I 12 W/m -11,7 C -10,5 C 0,0 km/h (0 Bft)
18.01.2016 08:45 -10,6 C 90 % 1024,0 hPa 0,0 l/m 0,0 km/h (0 Bft) NW 315 0 min 0,000 mm 0,0 UV-I 17 W/m -11,9 C -10,6 C 0,0 km/h (0 Bft)
18.01.2016 08:50 -10,7 C 90 % 1024,0 hPa 0,0 l/m 0,0 km/h (0 Bft) NW 315 0 min 0,000 mm 0,0 UV-I 20 W/m -12,0 C -10,7 C 0,0 km/h (0 Bft)
18.01.2016 08:55 -10,6 C 90 % 1024,0 hPa 0,0 l/m 0,0 km/h (0 Bft) NW 315 0 min 0,000 mm 0,0 UV-I 30 W/m -11,9 C -10,6 C 0,0 km/h (0 Bft)
18.01.2016 09:00 -10,6 C 90 % 1024,0 hPa 0,0 l/m 0,0 km/h (0 Bft) NW 315 0 min 0,000 mm 0,0 UV-I 34 W/m -11,9 C -10,6 C 0,0 km/h (0 Bft)
18.01.2016 09:05 -10,6 C 91 % 1024,0 hPa 0,0 l/m 0,0 km/h (0 Bft) NW 315 0 min 0,000 mm 0,0 UV-I 46 W/m -11,8 C -10,6 C 0,0 km/h (0 Bft)
18.01.2016 09:10 -10,4 C 91 % 1024,0 hPa 0,0 l/m 0,0 km/h (0 Bft) NW 315 5 min 0,000 mm 0,0 UV-I 70 W/m -11,6 C -10,4 C 0,0 km/h (0 Bft)
18.01.2016 09:15 -10,1 C 92 % 1023,9 hPa 0,0 l/m 0,0 km/h (0 Bft) NW 315 5 min 0,000 mm 0,0 UV-I 84 W/m -11,1 C -10,1 C 0,0 km/h (0 Bft)
18.01.2016 09:20 -9,7 C 92 % 1023,8 hPa 0,0 l/m 0,0 km/h (0 Bft) NW 315 5 min 0,000 mm 0,0 UV-I 96 W/m -10,7 C -9,7 C 0,0 km/h (0 Bft)
18.01.2016 09:25 -9,3 C 93 % 1023,8 hPa 0,0 l/m 0,0 km/h (0 Bft) NW 315 5 min 0,000 mm 0,0 UV-I 108 W/m -10,2 C -9,3 C 0,0 km/h (0 Bft)
18.01.2016 09:30 -9,0 C 92 % 1023,8 hPa 0,0 l/m 0,0 km/h (0 Bft) NW 315 5 min 0,000 mm 0,0 UV-I 119 W/m -10,1 C -9,0 C 0,0 km/h (0 Bft)
18.01.2016 09:35 -8,8 C 91 % 1023,7 hPa 0,0 l/m 0,0 km/h (0 Bft) NW 315 5 min 0,000 mm 0,0 UV-I 130 W/m -10,0 C -8,8 C 0,0 km/h (0 Bft)
18.01.2016 09:40 -8,6 C 90 % 1023,6 hPa 0,0 l/m 0,0 km/h (0 Bft) NW 315 5 min 0,000 mm 0,0 UV-I 141 W/m -9,9 C -8,6 C 0,0 km/h (0 Bft)
18.01.2016 09:45 -8,6 C 89 % 1023,6 hPa 0,0 l/m 0,0 km/h (0 Bft) NW 315 5 min 0,000 mm 0,0 UV-I 153 W/m -10,1 C -8,6 C 0,0 km/h (0 Bft)
18.01.2016 09:50 -8,6 C 89 % 1023,6 hPa 0,0 l/m 0,0 km/h (0 Bft) NW 315 5 min 0,000 mm 0,0 UV-I 164 W/m -10,1 C -8,6 C 0,0 km/h (0 Bft)
18.01.2016 09:55 -8,4 C 90 % 1023,4 hPa 0,0 l/m 0,0 km/h (0 Bft) NW 315 5 min 0,000 mm 0,0 UV-I 176 W/m -9,7 C -8,4 C 0,0 km/h (0 Bft)
18.01.2016 10:00 -8,1 C 90 % 1023,4 hPa 0,0 l/m 0,0 km/h (0 Bft) NW 315 5 min 0,000 mm 0,0 UV-I 186 W/m -9,4 C -8,1 C 0,0 km/h (0 Bft)
18.01.2016 10:05 -7,8 C 90 % 1023,4 hPa 0,0 l/m 0,0 km/h (0 Bft) NW 315 5 min 0,025 mm 0,0 UV-I 198 W/m -9,1 C -7,8 C 0,0 km/h (0 Bft)
18.01.2016 10:10 -7,4 C 88 % 1023,3 hPa 0,0 l/m 0,0 km/h (0 Bft) NW 315 5 min 0,000 mm 0,0 UV-I 209 W/m -9,0 C -7,4 C 0,0 km/h (0 Bft)
18.01.2016 10:15 -7,2 C 88 % 1023,2 hPa 0,0 l/m 0,0 km/h (0 Bft) NW 315 5 min 0,000 mm 0,0 UV-I 220 W/m -8,8 C -7,2 C 0,0 km/h (0 Bft)
18.01.2016 10:19 -6,8 C 87 % 1023,2 hPa 0,0 l/m 0,0 km/h (0 Bft) NW 315 4 min 0,000 mm 0,4 UV-I 229 W/m -8,6 C -6,8 C 0,0 km/h (0 Bft)
18.01.2016 10:20 -6,7 C 87 % 1023,2 hPa 0,0 l/m 0,0 km/h (0 Bft) NW 315 1 min 0,000 mm 0,5 UV-I 235 W/m -8,5 C -6,7 C 0,0 km/h (0 Bft)
18.01.2016 10:25 -6,5 C 85 % 1023,2 hPa 0,0 l/m 0,0 km/h (0 Bft) NW 315 5 min 0,000 mm 0,5 UV-I 240 W/m -8,6 C -6,5 C 0,0 km/h (0 Bft)
18.01.2016 10:30 -6,1 C 84 % 1023,2 hPa 0,0 l/m 0,0 km/h (0 Bft) NW 315 5 min 0,000 mm 0,5 UV-I 248 W/m -8,4 C -6,1 C 0,0 km/h (0 Bft)
18.01.2016 10:35 -5,9 C 82 % 1023,2 hPa 0,0 l/m 0,0 km/h (0 Bft) NW 315 5 min 0,000 mm 0,5 UV-I 256 W/m -8,5 C -5,9 C 0,0 km/h (0 Bft)
18.01.2016 10:40 -5,7 C 81 % 1023,1 hPa 0,0 l/m 0,0 km/h (0 Bft) NW 315 5 min 0,000 mm 0,5 UV-I 262 W/m -8,4 C -5,7 C 0,0 km/h (0 Bft)
18.01.2016 10:45 -5,9 C 81 % 1023,0 hPa 0,0 l/m 0,0 km/h (0 Bft) NW 317 5 min 0,000 mm 0,5 UV-I 270 W/m -8,6 C -5,9 C 0,0 km/h (0 Bft)
18.01.2016 10:50 -5,9 C 82 % 1022,9 hPa 0,0 l/m 0,0 km/h (0 Bft) NW 317 5 min 0,000 mm 0,6 UV-I 277 W/m -8,5 C -5,9 C 0,0 km/h (0 Bft)
18.01.2016 10:55 -5,9 C 83 % 1022,9 hPa 0,0 l/m 0,0 km/h (0 Bft) NW 317 5 min 0,000 mm 0,6 UV-I 285 W/m -8,3 C -5,9 C 0,0 km/h (0 Bft)
18.01.2016 11:00 -5,7 C 82 % 1022,8 hPa 0,0 l/m 0,0 km/h (0 Bft) NW 318 5 min 0,051 mm 0,6 UV-I 291 W/m -8,3 C -5,7 C 0,0 km/h (0 Bft)
18.01.2016 11:05 -5,6 C 85 % 1022,7 hPa 0,0 l/m 0,0 km/h (0 Bft) NW 317 5 min 0,000 mm 0,6 UV-I 299 W/m -7,7 C -5,6 C 0,0 km/h (0 Bft)
18.01.2016 11:10 -5,1 C 84 % 1022,6 hPa 0,0 l/m 0,0 km/h (0 Bft) NW 318 5 min 0,000 mm 0,6 UV-I 305 W/m -7,4 C -5,1 C 0,0 km/h (0 Bft)
18.01.2016 11:15 -4,8 C 85 % 1022,6 hPa 0,0 l/m 0,0 km/h (0 Bft) N 360 5 min 0,000 mm 0,7 UV-I 310 W/m -6,9 C -4,8 C 0,0 km/h (0 Bft)
18.01.2016 11:20 -4,5 C 84 % 1022,5 hPa 0,0 l/m 0,0 km/h (0 Bft) N 360 5 min 0,000 mm 0,7 UV-I 315 W/m -6,8 C -4,5 C 0,0 km/h (0 Bft)
18.01.2016 11:25 -4,2 C 84 % 1022,4 hPa 0,0 l/m 0,0 km/h (0 Bft) N-NO 12 5 min 0,000 mm 0,7 UV-I 320 W/m -6,5 C -4,2 C 0,0 km/h (0 Bft)
18.01.2016 11:30 -4,0 C 83 % 1022,4 hPa 0,0 l/m 0,0 km/h (0 Bft) N-NO 14 5 min 0,000 mm 0,7 UV-I 326 W/m -6,4 C -4,0 C 0,0 km/h (0 Bft)
18.01.2016 11:35 -4,1 C 83 % 1022,2 hPa 0,0 l/m 0,0 km/h (0 Bft) O-NO 61 5 min 0,000 mm 0,7 UV-I 330 W/m -6,5 C -4,1 C 0,0 km/h (0 Bft)
18.01.2016 11:40 -4,1 C 83 % 1022,1 hPa 0,0 l/m 0,0 km/h (0 Bft) O-NO 57 5 min 0,000 mm 0,7 UV-I 336 W/m -6,5 C -4,1 C 1,6 km/h (1 Bft)
18.01.2016 11:45 -4,2 C 83 % 1022,0 hPa 0,0 l/m 0,0 km/h (0 Bft) O-NO 57 5 min 0,000 mm 0,8 UV-I 342 W/m -6,6 C -4,2 C 0,0 km/h (0 Bft)
18.01.2016 11:50 -4,2 C 85 % 1022,0 hPa 0,0 l/m 0,0 km/h (0 Bft) NO 53 5 min 0,000 mm 0,8 UV-I 346 W/m -6,3 C -4,2 C 0,0 km/h (0 Bft)
18.01.2016 11:55 -4,1 C 85 % 1021,9 hPa 0,0 l/m 0,0 km/h (0 Bft) O-NO 70 5 min 0,000 mm 0,8 UV-I 349 W/m -6,2 C -4,1 C 0,0 km/h (0 Bft)
18.01.2016 12:00 -3,9 C 85 % 1021,8 hPa 0,0 l/m 1,3 km/h (1 Bft) O-NO 63 5 min 0,102 mm 0,8 UV-I 351 W/m -6,0 C -3,9 C 11,3 km/h (2 Bft)
18.01.2016 12:05 -3,9 C 85 % 1021,8 hPa 0,0 l/m 4,4 km/h (1 Bft) O-NO 65 5 min 0,000 mm 0,8 UV-I 354 W/m -6,0 C -3,9 C 11,3 km/h (2 Bft)
18.01.2016 12:10 -3,8 C 85 % 1021,7 hPa 0,0 l/m 3,7 km/h (1 Bft) O-NO 64 5 min 0,000 mm 0,8 UV-I 356 W/m -5,9 C -3,8 C 8,0 km/h (2 Bft)
18.01.2016 12:15 -3,7 C 84 % 1021,6 hPa 0,0 l/m 3,1 km/h (1 Bft) NO 53 5 min 0,000 mm 0,8 UV-I 359 W/m -6,0 C -3,7 C 11,3 km/h (2 Bft)
18.01.2016 12:20 -3,6 C 84 % 1021,7 hPa 0,0 l/m 4,8 km/h (1 Bft) O-NO 67 5 min 0,000 mm 0,8 UV-I 362 W/m -5,9 C -3,6 C 11,3 km/h (2 Bft)
18.01.2016 12:25 -3,6 C 84 % 1021,6 hPa 0,0 l/m 4,2 km/h (1 Bft) NO 49 5 min 0,000 mm 0,8 UV-I 365 W/m -5,9 C -3,6 C 11,3 km/h (2 Bft)
18.01.2016 12:30 -3,4 C 83 % 1021,5 hPa 0,0 l/m 4,7 km/h (1 Bft) NO 49 5 min 0,000 mm 0,8 UV-I 365 W/m -5,9 C -3,4 C 11,3 km/h (2 Bft)
18.01.2016 12:35 -3,4 C 83 % 1021,4 hPa 0,0 l/m 5,3 km/h (1 Bft) O-NO 71 5 min 0,000 mm 0,8 UV-I 361 W/m -5,9 C -3,4 C 11,3 km/h (2 Bft)
18.01.2016 12:40 -3,3 C 83 % 1021,3 hPa 0,0 l/m 4,7 km/h (1 Bft) NO 53 5 min 0,000 mm 0,8 UV-I 355 W/m -5,8 C -3,3 C 12,9 km/h (3 Bft)
18.01.2016 12:45 -3,3 C 83 % 1021,2 hPa 0,0 l/m 4,7 km/h (1 Bft) NO 51 5 min 0,000 mm 0,8 UV-I 323 W/m -5,8 C -3,3 C 11,3 km/h (2 Bft)
18.01.2016 12:50 -3,1 C 84 % 1021,1 hPa 0,0 l/m 3,8 km/h (1 Bft) O-NO 71 5 min 0,000 mm 0,8 UV-I 344 W/m -5,4 C -3,1 C 11,3 km/h (2 Bft)
18.01.2016 12:55 -3,0 C 84 % 1021,0 hPa 0,0 l/m 5,5 km/h (1 Bft) O 98 5 min 0,000 mm 0,8 UV-I 374 W/m -5,3 C -3,0 C 11,3 km/h (2 Bft)
18.01.2016 13:00 -3,1 C 84 % 1020,9 hPa 0,0 l/m 5,9 km/h (2 Bft) NO 51 5 min 0,101 mm 0,8 UV-I 288 W/m -5,4 C -3,1 C 14,5 km/h (3 Bft)
18.01.2016 13:05 -3,1 C 84 % 1020,9 hPa 0,0 l/m 5,4 km/h (1 Bft) O-NO 58 5 min 0,000 mm 0,7 UV-I 252 W/m -5,4 C -3,1 C 12,9 km/h (3 Bft)
18.01.2016 13:10 -3,1 C 84 % 1020,9 hPa 0,0 l/m 4,6 km/h (1 Bft) O-NO 61 5 min 0,000 mm 0,7 UV-I 200 W/m -5,4 C -3,1 C 9,7 km/h (2 Bft)
18.01.2016 13:15 -3,1 C 84 % 1020,9 hPa 0,0 l/m 2,8 km/h (1 Bft) O-NO 68 5 min 0,000 mm 0,6 UV-I 184 W/m -5,4 C -3,1 C 9,7 km/h (2 Bft)
18.01.2016 13:20 -3,1 C 84 % 1020,8 hPa 0,0 l/m 4,9 km/h (1 Bft) NO 56 0 min 0,000 mm 0,6 UV-I 151 W/m -5,4 C -3,1 C 11,3 km/h (2 Bft)
18.01.2016 13:25 -3,2 C 85 % 1020,7 hPa 0,0 l/m 3,5 km/h (1 Bft) O-NO 63 5 min 0,000 mm 0,6 UV-I 211 W/m -5,4 C -3,2 C 9,7 km/h (2 Bft)
18.01.2016 13:30 -2,9 C 85 % 1020,7 hPa 0,0 l/m 1,8 km/h (1 Bft) O-SO 107 5 min 0,000 mm 0,7 UV-I 223 W/m -5,1 C -2,9 C 9,7 km/h (2 Bft)
18.01.2016 13:35 -2,8 C 84 % 1020,6 hPa 0,0 l/m 5,8 km/h (2 Bft) NO 51 5 min 0,000 mm 0,7 UV-I 333 W/m -5,1 C -2,8 C 14,5 km/h (3 Bft)
18.01.2016 13:40 -2,8 C 83 % 1020,5 hPa 0,0 l/m 5,0 km/h (1 Bft) O 89 5 min 0,000 mm 0,7 UV-I 304 W/m -5,3 C -2,8 C 11,3 km/h (2 Bft)
18.01.2016 13:45 -2,7 C 82 % 1020,5 hPa 0,0 l/m 4,1 km/h (1 Bft) O-NO 65 5 min 0,000 mm 0,7 UV-I 412 W/m -5,3 C -2,7 C 14,5 km/h (3 Bft)
18.01.2016 13:50 -2,5 C 83 % 1020,4 hPa 0,0 l/m 2,9 km/h (1 Bft) O-SO 115 5 min 0,000 mm 0,7 UV-I 344 W/m -5,0 C -2,5 C 12,9 km/h (3 Bft)
18.01.2016 13:55 -2,5 C 81 % 1020,4 hPa 0,0 l/m 3,4 km/h (1 Bft) SO 132 5 min 0,000 mm 0,7 UV-I 338 W/m -5,3 C -2,5 C 8,0 km/h (2 Bft)
18.01.2016 14:00 -2,6 C 82 % 1020,3 hPa 0,0 l/m 3,0 km/h (1 Bft) O 95 5 min 0,077 mm 0,7 UV-I 256 W/m -5,2 C -2,6 C 8,0 km/h (2 Bft)
18.01.2016 14:05 -2,5 C 81 % 1020,2 hPa 0,0 l/m 1,7 km/h (1 Bft) O-SO 118 5 min 0,000 mm 0,7 UV-I 330 W/m -5,3 C -2,5 C 8,0 km/h (2 Bft)
18.01.2016 14:10 -2,4 C 80 % 1020,1 hPa 0,0 l/m 3,3 km/h (1 Bft) O-SO 119 5 min 0,000 mm 0,7 UV-I 294 W/m -5,4 C -2,4 C 8,0 km/h (2 Bft)
18.01.2016 14:15 -2,4 C 81 % 1020,1 hPa 0,0 l/m 0,2 km/h (0 Bft) NO 51 5 min 0,000 mm 0,6 UV-I 310 W/m -5,2 C -2,4 C 4,8 km/h (1 Bft)
18.01.2016 14:20 -2,4 C 80 % 1020,0 hPa 0,0 l/m 2,9 km/h (1 Bft) O 83 5 min 0,000 mm 0,6 UV-I 318 W/m -5,4 C -2,4 C 11,3 km/h (2 Bft)
18.01.2016 14:25 -2,4 C 81 % 1019,9 hPa 0,0 l/m 2,7 km/h (1 Bft) NO 42 5 min 0,000 mm 0,6 UV-I 311 W/m -5,2 C -2,4 C 9,7 km/h (2 Bft)
18.01.2016 14:30 -2,4 C 80 % 1019,9 hPa 0,0 l/m 5,3 km/h (1 Bft) NO 51 5 min 0,000 mm 0,6 UV-I 305 W/m -5,4 C -2,4 C 11,3 km/h (2 Bft)
18.01.2016 14:35 -2,4 C 81 % 1019,9 hPa 0,0 l/m 2,4 km/h (1 Bft) NO 54 5 min 0,000 mm 0,6 UV-I 295 W/m -5,2 C -2,4 C 11,3 km/h (2 Bft)
18.01.2016 14:40 -2,4 C 81 % 1019,8 hPa 0,0 l/m 1,7 km/h (1 Bft) O-NO 59 5 min 0,000 mm 0,6 UV-I 285 W/m -5,2 C -2,4 C 8,0 km/h (2 Bft)
18.01.2016 14:45 -2,3 C 80 % 1019,8 hPa 0,0 l/m 1,2 km/h (1 Bft) NO 55 5 min 0,000 mm 0,5 UV-I 272 W/m -5,3 C -2,3 C 11,3 km/h (2 Bft)
18.01.2016 14:50 -2,3 C 79 % 1019,8 hPa 0,0 l/m 4,7 km/h (1 Bft) NO 46 5 min 0,000 mm 0,5 UV-I 265 W/m -5,4 C -2,3 C 11,3 km/h (2 Bft)
18.01.2016 14:55 -2,4 C 79 % 1019,9 hPa 0,0 l/m 3,2 km/h (1 Bft) O-NO 62 5 min 0,000 mm 0,5 UV-I 255 W/m -5,5 C -2,4 C 8,0 km/h (2 Bft)
18.01.2016 15:00 -2,4 C 79 % 1019,8 hPa 0,0 l/m 2,0 km/h (1 Bft) O-NO 74 5 min 0,101 mm 0,5 UV-I 240 W/m -5,5 C -2,4 C 8,0 km/h (2 Bft)
18.01.2016 15:05 -2,2 C 79 % 1019,8 hPa 0,0 l/m 0,0 km/h (0 Bft) O 88 5 min 0,000 mm 0,4 UV-I 225 W/m -5,3 C -2,2 C 0,0 km/h (0 Bft)
18.01.2016 15:10 -2,1 C 79 % 1019,8 hPa 0,0 l/m 0,0 km/h (0 Bft) NO 51 5 min 0,000 mm 0,5 UV-I 220 W/m -5,2 C -2,1 C 0,0 km/h (0 Bft)
18.01.2016 15:15 -2,1 C 79 % 1019,8 hPa 0,0 l/m 0,0 km/h (0 Bft) O-NO 60 5 min 0,000 mm 0,0 UV-I 212 W/m -5,2 C -2,1 C 0,0 km/h (0 Bft)
18.01.2016 15:20 -2,1 C 79 % 1019,7 hPa 0,0 l/m 0,0 km/h (0 Bft) O 87 5 min 0,000 mm 0,0 UV-I 189 W/m -5,2 C -2,1 C 0,0 km/h (0 Bft)
18.01.2016 15:25 -2,2 C 78 % 1019,6 hPa 0,0 l/m 4,4 km/h (1 Bft) NO 55 5 min 0,000 mm 0,0 UV-I 179 W/m -5,5 C -2,2 C 12,9 km/h (3 Bft)
18.01.2016 15:30 -2,3 C 79 % 1019,6 hPa 0,0 l/m 3,7 km/h (1 Bft) O-NO 74 5 min 0,000 mm 0,0 UV-I 162 W/m -5,4 C -2,3 C 11,3 km/h (2 Bft)
18.01.2016 15:35 -2,4 C 80 % 1019,5 hPa 0,0 l/m 3,4 km/h (1 Bft) O 84 5 min 0,000 mm 0,0 UV-I 128 W/m -5,4 C -2,4 C 8,0 km/h (2 Bft)
18.01.2016 15:40 -2,4 C 79 % 1019,5 hPa 0,0 l/m 1,3 km/h (1 Bft) NO 56 5 min 0,000 mm 0,0 UV-I 142 W/m -5,5 C -2,4 C 4,8 km/h (1 Bft)
18.01.2016 15:45 -2,5 C 79 % 1019,5 hPa 0,0 l/m 2,6 km/h (1 Bft) O-SO 105 5 min 0,000 mm 0,0 UV-I 117 W/m -5,6 C -2,5 C 11,3 km/h (2 Bft)
18.01.2016 15:50 -2,5 C 79 % 1019,5 hPa 0,0 l/m 1,2 km/h (1 Bft) O-NO 77 5 min 0,000 mm 0,0 UV-I 87 W/m -5,6 C -2,5 C 6,4 km/h (2 Bft)
18.01.2016 15:55 -2,6 C 79 % 1019,6 hPa 0,0 l/m 1,3 km/h (1 Bft) O-NO 60 5 min 0,000 mm 0,0 UV-I 83 W/m -5,7 C -2,6 C 6,4 km/h (2 Bft)
18.01.2016 16:00 -2,6 C 79 % 1019,5 hPa 0,0 l/m 2,4 km/h (1 Bft) NO 47 5 min 0,051 mm 0,0 UV-I 87 W/m -5,7 C -2,6 C 8,0 km/h (2 Bft)
18.01.2016 16:05 -2,7 C 80 % 1019,5 hPa 0,0 l/m 2,4 km/h (1 Bft) O-NO 57 5 min 0,000 mm 0,0 UV-I 80 W/m -5,7 C -2,7 C 6,4 km/h (2 Bft)
18.01.2016 16:10 -2,8 C 80 % 1019,5 hPa 0,0 l/m 2,3 km/h (1 Bft) NO 46 5 min 0,000 mm 0,0 UV-I 63 W/m -5,8 C -2,8 C 6,4 km/h (2 Bft)
18.01.2016 16:15 -2,9 C 80 % 1019,5 hPa 0,0 l/m 2,6 km/h (1 Bft) O-NO 65 5 min 0,000 mm 0,0 UV-I 46 W/m -5,9 C -2,9 C 8,0 km/h (2 Bft)
18.01.2016 16:20 -3,0 C 80 % 1019,4 hPa 0,0 l/m 1,6 km/h (1 Bft) O-NO 59 0 min 0,000 mm 0,0 UV-I 29 W/m -6,0 C -3,0 C 6,4 km/h (2 Bft)
18.01.2016 16:25 -3,1 C 81 % 1019,4 hPa 0,0 l/m 0,6 km/h (0 Bft) NO 34 0 min 0,000 mm 0,0 UV-I 24 W/m -5,9 C -3,1 C 3,2 km/h (1 Bft)
18.01.2016 16:30 -3,1 C 81 % 1019,3 hPa 0,0 l/m 0,7 km/h (0 Bft) NO 38 0 min 0,000 mm 0,0 UV-I 16 W/m -5,9 C -3,1 C 4,8 km/h (1 Bft)
18.01.2016 16:35 -3,2 C 82 % 1019,3 hPa 0,0 l/m 0,3 km/h (0 Bft) NO 37 0 min 0,000 mm 0,0 UV-I 11 W/m -5,8 C -3,2 C 3,2 km/h (1 Bft)
18.01.2016 16:40 -3,3 C 82 % 1019,2 hPa 0,0 l/m 1,6 km/h (1 Bft) NO 44 0 min 0,000 mm 0,0 UV-I 9 W/m -5,9 C -3,3 C 6,4 km/h (2 Bft)
18.01.2016 16:45 -3,4 C 82 % 1019,2 hPa 0,0 l/m 1,4 km/h (1 Bft) NO 41 0 min 0,000 mm 0,0 UV-I 6 W/m -6,0 C -3,4 C 6,4 km/h (2 Bft)
18.01.2016 16:50 -3,6 C 83 % 1019,2 hPa 0,0 l/m 0,6 km/h (0 Bft) O-NO 57 0 min 0,000 mm 0,0 UV-I 2 W/m -6,1 C -3,6 C 3,2 km/h (1 Bft)
18.01.2016 16:55 -3,7 C 83 % 1019,3 hPa 0,0 l/m 0,0 km/h (0 Bft) O-NO 57 0 min 0,000 mm 0,0 UV-I 0 W/m -6,2 C -3,7 C 1,6 km/h (1 Bft)
18.01.2016 17:00 -3,7 C 83 % 1019,3 hPa 0,0 l/m 0,0 km/h (0 Bft) O-NO 57 0 min 0,000 mm 0,0 UV-I 0 W/m -6,2 C -3,7 C 0,0 km/h (0 Bft)
18.01.2016 17:05 -3,8 C 83 % 1019,4 hPa 0,0 l/m 0,0 km/h (0 Bft) O-NO 57 0 min 0,000 mm 0,0 UV-I 0 W/m -6,3 C -3,8 C 0,0 km/h (0 Bft)
18.01.2016 17:10 -3,9 C 84 % 1019,3 hPa 0,0 l/m 0,0 km/h (0 Bft) O-NO 57 0 min 0,000 mm 0,0 UV-I 0 W/m -6,2 C -3,9 C 0,0 km/h (0 Bft)
18.01.2016 17:15 -4,0 C 84 % 1019,3 hPa 0,0 l/m 0,0 km/h (0 Bft) O-NO 57 0 min 0,000 mm 0,0 UV-I 0 W/m -6,3 C -4,0 C 0,0 km/h (0 Bft)
18.01.2016 17:20 -4,1 C 84 % 1019,2 hPa 0,0 l/m 0,0 km/h (0 Bft) O-NO 57 0 min 0,000 mm 0,0 UV-I 0 W/m -6,4 C -4,1 C 0,0 km/h (0 Bft)
18.01.2016 17:25 -4,2 C 83 % 1019,3 hPa 0,0 l/m 0,0 km/h (0 Bft) O-NO 57 0 min 0,000 mm 0,0 UV-I 0 W/m -6,6 C -4,2 C 0,0 km/h (0 Bft)
18.01.2016 17:30 -4,3 C 84 % 1019,3 hPa 0,0 l/m 0,0 km/h (0 Bft) O-NO 57 0 min 0,000 mm 0,0 UV-I 0 W/m -6,6 C -4,3 C 0,0 km/h (0 Bft)
18.01.2016 17:35 -4,6 C 84 % 1019,3 hPa 0,0 l/m 0,0 km/h (0 Bft) O-NO 57 0 min 0,000 mm 0,0 UV-I 0 W/m -6,9 C -4,6 C 0,0 km/h (0 Bft)
18.01.2016 17:40 -4,8 C 85 % 1019,3 hPa 0,0 l/m 0,0 km/h (0 Bft) O-NO 57 0 min 0,000 mm 0,0 UV-I 0 W/m -6,9 C -4,8 C 0,0 km/h (0 Bft)
18.01.2016 17:45 -4,9 C 85 % 1019,3 hPa 0,0 l/m 0,0 km/h (0 Bft) O-NO 57 0 min 0,000 mm 0,0 UV-I 0 W/m -7,0 C -4,9 C 0,0 km/h (0 Bft)
18.01.2016 17:50 -4,9 C 85 % 1019,4 hPa 0,0 l/m 0,0 km/h (0 Bft) O-NO 57 0 min 0,000 mm 0,0 UV-I 0 W/m -7,0 C -4,9 C 0,0 km/h (0 Bft)
18.01.2016 17:55 -5,1 C 86 % 1019,4 hPa 0,0 l/m 0,0 km/h (0 Bft) O-NO 57 0 min 0,000 mm 0,0 UV-I 0 W/m -7,1 C -5,1 C 0,0 km/h (0 Bft)
18.01.2016 18:00 -5,2 C 86 % 1019,4 hPa 0,0 l/m 0,0 km/h (0 Bft) O-NO 57 0 min 0,000 mm 0,0 UV-I 0 W/m -7,2 C -5,2 C 0,0 km/h (0 Bft)
18.01.2016 18:05 -5,3 C 86 % 1019,4 hPa 0,0 l/m 0,0 km/h (0 Bft) O-NO 57 0 min 0,000 mm 0,0 UV-I 0 W/m -7,3 C -5,3 C 0,0 km/h (0 Bft)
18.01.2016 18:10 -5,5 C 86 % 1019,3 hPa 0,0 l/m 0,0 km/h (0 Bft) O-NO 57 0 min 0,000 mm 0,0 UV-I 0 W/m -7,5 C -5,5 C 0,0 km/h (0 Bft)
18.01.2016 18:15 -5,7 C 87 % 1019,3 hPa 0,0 l/m 0,0 km/h (0 Bft) O-NO 57 0 min 0,000 mm 0,0 UV-I 0 W/m -7,5 C -5,7 C 0,0 km/h (0 Bft)
18.01.2016 18:20 -5,8 C 87 % 1019,3 hPa 0,0 l/m 0,0 km/h (0 Bft) O-NO 57 0 min 0,000 mm 0,0 UV-I 0 W/m -7,6 C -5,8 C 0,0 km/h (0 Bft)
18.01.2016 18:25 -5,9 C 88 % 1019,3 hPa 0,0 l/m 0,0 km/h (0 Bft) O-NO 57 0 min 0,000 mm 0,0 UV-I 0 W/m -7,6 C -5,9 C 0,0 km/h (0 Bft)
18.01.2016 18:30 -6,1 C 88 % 1019,3 hPa 0,0 l/m 0,0 km/h (0 Bft) O-NO 57 0 min 0,000 mm 0,0 UV-I 0 W/m -7,8 C -6,1 C 0,0 km/h (0 Bft)
18.01.2016 18:35 -6,3 C 88 % 1019,3 hPa 0,0 l/m 0,0 km/h (0 Bft) O-NO 57 0 min 0,000 mm 0,0 UV-I 0 W/m -8,0 C -6,3 C 0,0 km/h (0 Bft)
18.01.2016 18:40 -6,6 C 88 % 1019,2 hPa 0,0 l/m 0,0 km/h (0 Bft) O-NO 57 0 min 0,000 mm 0,0 UV-I 0 W/m -8,2 C -6,6 C 0,0 km/h (0 Bft)
18.01.2016 18:45 -6,7 C 88 % 1019,2 hPa 0,0 l/m 0,0 km/h (0 Bft) O-NO 57 0 min 0,000 mm 0,0 UV-I 0 W/m -8,3 C -6,7 C 0,0 km/h (0 Bft)
18.01.2016 18:50 -6,7 C 89 % 1019,3 hPa 0,0 l/m 0,0 km/h (0 Bft) O-NO 57 0 min 0,000 mm 0,0 UV-I 0 W/m -8,2 C -6,7 C 0,0 km/h (0 Bft)
18.01.2016 18:55 -6,7 C 89 % 1019,4 hPa 0,0 l/m 0,0 km/h (0 Bft) O-NO 57 0 min 0,000 mm 0,0 UV-I 0 W/m -8,2 C -6,7 C 0,0 km/h (0 Bft)
18.01.2016 19:00 -6,7 C 90 % 1019,3 hPa 0,0 l/m 0,0 km/h (0 Bft) O-NO 57 0 min 0,000 mm 0,0 UV-I 0 W/m -8,1 C -6,7 C 0,0 km/h (0 Bft)
18.01.2016 19:05 -6,8 C 89 % 1019,4 hPa 0,0 l/m 0,0 km/h (0 Bft) O-NO 57 0 min 0,000 mm 0,0 UV-I 0 W/m -8,3 C -6,8 C 1,6 km/h (1 Bft)
18.01.2016 19:10 -7,1 C 89 % 1019,3 hPa 0,0 l/m 0,0 km/h (0 Bft) O-NO 57 0 min 0,000 mm 0,0 UV-I 0 W/m -8,6 C -7,1 C 0,0 km/h (0 Bft)
18.01.2016 19:15 -7,2 C 90 % 1019,4 hPa 0,0 l/m 0,0 km/h (0 Bft) O-NO 57 0 min 0,000 mm 0,0 UV-I 0 W/m -8,6 C -7,2 C 0,0 km/h (0 Bft)
18.01.2016 19:20 -7,2 C 90 % 1019,5 hPa 0,0 l/m 0,0 km/h (0 Bft) O-NO 57 0 min 0,000 mm 0,0 UV-I 0 W/m -8,6 C -7,2 C 0,0 km/h (0 Bft)
18.01.2016 19:25 -7,2 C 90 % 1019,4 hPa 0,0 l/m 0,0 km/h (0 Bft) O-NO 57 0 min 0,000 mm 0,0 UV-I 0 W/m -8,6 C -7,2 C 0,0 km/h (0 Bft)
18.01.2016 19:30 -7,4 C 89 % 1019,5 hPa 0,0 l/m 0,0 km/h (0 Bft) O-NO 57 0 min 0,000 mm 0,0 UV-I 0 W/m -8,9 C -7,4 C 0,0 km/h (0 Bft)
18.01.2016 19:35 -7,5 C 89 % 1019,4 hPa 0,0 l/m 0,0 km/h (0 Bft) O-NO 57 0 min 0,000 mm 0,0 UV-I 0 W/m -9,0 C -7,5 C 0,0 km/h (0 Bft)
18.01.2016 19:40 -7,7 C 89 % 1019,4 hPa 0,0 l/m 0,0 km/h (0 Bft) O-NO 57 0 min 0,000 mm 0,0 UV-I 0 W/m -9,2 C -7,7 C 0,0 km/h (0 Bft)
18.01.2016 19:45 -7,7 C 89 % 1019,3 hPa 0,0 l/m 0,0 km/h (0 Bft) O-NO 57 0 min 0,000 mm 0,0 UV-I 0 W/m -9,2 C -7,7 C 0,0 km/h (0 Bft)
18.01.2016 19:50 -7,7 C 90 % 1019,4 hPa 0,0 l/m 0,0 km/h (0 Bft) O-NO 57 0 min 0,000 mm 0,0 UV-I 0 W/m -9,0 C -7,7 C 3,2 km/h (1 Bft)
18.01.2016 19:55 -7,5 C 91 % 1019,3 hPa 0,0 l/m 0,0 km/h (0 Bft) O-NO 57 0 min 0,000 mm 0,0 UV-I 0 W/m -8,7 C -7,5 C 1,6 km/h (1 Bft)
18.01.2016 20:00 -7,3 C 91 % 1019,3 hPa 0,0 l/m 0,3 km/h (0 Bft) O-NO 57 0 min 0,000 mm 0,0 UV-I 0 W/m -8,5 C -7,3 C 1,6 km/h (1 Bft)
18.01.2016 20:05 -7,2 C 91 % 1019,3 hPa 0,0 l/m 0,7 km/h (0 Bft) NO 56 0 min 0,000 mm 0,0 UV-I 0 W/m -8,4 C -7,2 C 3,2 km/h (1 Bft)
18.01.2016 20:10 -7,1 C 91 % 1019,4 hPa 0,0 l/m 0,6 km/h (0 Bft) O-NO 63 0 min 0,000 mm 0,0 UV-I 0 W/m -8,3 C -7,1 C 3,2 km/h (1 Bft)
18.01.2016 20:15 -7,1 C 90 % 1019,3 hPa 0,0 l/m 0,1 km/h (0 Bft) N-NO 31 0 min 0,000 mm 0,0 UV-I 0 W/m -8,5 C -7,1 C 1,6 km/h (1 Bft)
18.01.2016 20:20 -7,1 C 90 % 1019,3 hPa 0,0 l/m 0,2 km/h (0 Bft) N-NO 32 0 min 0,000 mm 0,0 UV-I 0 W/m -8,5 C -7,1 C 1,6 km/h (1 Bft)
18.01.2016 20:25 -7,1 C 90 % 1019,4 hPa 0,0 l/m 0,5 km/h (0 Bft) NO 50 0 min 0,000 mm 0,0 UV-I 0 W/m -8,5 C -7,1 C 4,8 km/h (1 Bft)
18.01.2016 20:30 -7,1 C 91 % 1019,4 hPa 0,0 l/m 0,9 km/h (0 Bft) O-NO 67 0 min 0,000 mm 0,0 UV-I 0 W/m -8,3 C -7,1 C 8,0 km/h (2 Bft)
18.01.2016 20:35 -6,9 C 91 % 1019,4 hPa 0,0 l/m 1,6 km/h (1 Bft) O-NO 59 0 min 0,000 mm 0,0 UV-I 0 W/m -8,1 C -6,9 C 8,0 km/h (2 Bft)
18.01.2016 20:40 -6,9 C 91 % 1019,4 hPa 0,0 l/m 0,3 km/h (0 Bft) N 9 0 min 0,000 mm 0,0 UV-I 0 W/m -8,1 C -6,9 C 3,2 km/h (1 Bft)
18.01.2016 20:45 -6,9 C 91 % 1019,3 hPa 0,0 l/m 0,6 km/h (0 Bft) NO 53 0 min 0,000 mm 0,0 UV-I 0 W/m -8,1 C -6,9 C 3,2 km/h (1 Bft)
18.01.2016 20:50 -6,8 C 91 % 1019,4 hPa 0,0 l/m 0,7 km/h (0 Bft) O-NO 74 0 min 0,000 mm 0,0 UV-I 0 W/m -8,0 C -6,8 C 6,4 km/h (2 Bft)
18.01.2016 20:55 -6,8 C 91 % 1019,4 hPa 0,0 l/m 1,5 km/h (1 Bft) O 96 0 min 0,000 mm 0,0 UV-I 0 W/m -8,0 C -6,8 C 4,8 km/h (1 Bft)
18.01.2016 21:00 -6,7 C 91 % 1019,4 hPa 0,0 l/m 0,5 km/h (0 Bft) O-NO 57 0 min 0,000 mm 0,0 UV-I 0 W/m -7,9 C -6,7 C 3,2 km/h (1 Bft)
18.01.2016 21:05 -6,7 C 91 % 1019,4 hPa 0,0 l/m 0,5 km/h (0 Bft) O-NO 64 0 min 0,000 mm 0,0 UV-I 0 W/m -7,9 C -6,7 C 4,8 km/h (1 Bft)
18.01.2016 21:10 -6,7 C 91 % 1019,4 hPa 0,0 l/m 1,4 km/h (1 Bft) O-NO 61 0 min 0,000 mm 0,0 UV-I 0 W/m -7,9 C -6,7 C 4,8 km/h (1 Bft)
18.01.2016 21:15 -6,7 C 91 % 1019,5 hPa 0,0 l/m 1,9 km/h (1 Bft) NO 52 0 min 0,000 mm 0,0 UV-I 0 W/m -7,9 C -6,7 C 6,4 km/h (2 Bft)
18.01.2016 21:20 -6,7 C 91 % 1019,5 hPa 0,0 l/m 3,6 km/h (1 Bft) O 80 0 min 0,000 mm 0,0 UV-I 0 W/m -7,9 C -6,7 C 8,0 km/h (2 Bft)
18.01.2016 21:25 -6,8 C 90 % 1019,5 hPa 0,0 l/m 1,8 km/h (1 Bft) O-NO 66 0 min 0,000 mm 0,0 UV-I 0 W/m -8,2 C -6,8 C 4,8 km/h (1 Bft)
18.01.2016 21:30 -6,8 C 90 % 1019,5 hPa 0,0 l/m 2,0 km/h (1 Bft) O-NO 57 0 min 0,000 mm 0,0 UV-I 0 W/m -8,2 C -6,8 C 4,8 km/h (1 Bft)
18.01.2016 21:35 -6,9 C 90 % 1019,5 hPa 0,0 l/m 0,7 km/h (0 Bft) O-NO 61 0 min 0,000 mm 0,0 UV-I 0 W/m -8,3 C -6,9 C 3,2 km/h (1 Bft)
18.01.2016 21:40 -7,0 C 90 % 1019,5 hPa 0,0 l/m 1,1 km/h (1 Bft) O-NO 57 0 min 0,000 mm 0,0 UV-I 0 W/m -8,4 C -7,0 C 4,8 km/h (1 Bft)
18.01.2016 21:45 -7,0 C 90 % 1019,4 hPa 0,0 l/m 0,3 km/h (0 Bft) NO 46 0 min 0,000 mm 0,0 UV-I 0 W/m -8,4 C -7,0 C 3,2 km/h (1 Bft)
18.01.2016 21:50 -7,1 C 90 % 1019,4 hPa 0,0 l/m 0,3 km/h (0 Bft) N-NO 33 0 min 0,000 mm 0,0 UV-I 0 W/m -8,5 C -7,1 C 3,2 km/h (1 Bft)
18.01.2016 21:55 -7,1 C 90 % 1019,3 hPa 0,0 l/m 0,3 km/h (0 Bft) NO 49 0 min 0,000 mm 0,0 UV-I 0 W/m -8,5 C -7,1 C 1,6 km/h (1 Bft)
18.01.2016 22:00 -7,1 C 90 % 1019,3 hPa 0,0 l/m 0,0 km/h (0 Bft) NO 49 0 min 0,000 mm 0,0 UV-I 0 W/m -8,5 C -7,1 C 1,6 km/h (1 Bft)
18.01.2016 22:05 -7,1 C 90 % 1019,4 hPa 0,0 l/m 0,0 km/h (0 Bft) NO 49 0 min 0,000 mm 0,0 UV-I 0 W/m -8,5 C -7,1 C 1,6 km/h (1 Bft)
18.01.2016 22:10 -7,2 C 90 % 1019,3 hPa 0,0 l/m 0,1 km/h (0 Bft) NO 49 0 min 0,000 mm 0,0 UV-I 0 W/m -8,6 C -7,2 C 1,6 km/h (1 Bft)
18.01.2016 22:15 -7,2 C 91 % 1019,3 hPa 0,0 l/m 0,2 km/h (0 Bft) O-NO 61 0 min 0,000 mm 0,0 UV-I 0 W/m -8,4 C -7,2 C 1,6 km/h (1 Bft)
18.01.2016 22:20 -7,2 C 91 % 1019,3 hPa 0,0 l/m 0,0 km/h (0 Bft) NO 51 0 min 0,000 mm 0,0 UV-I 0 W/m -8,4 C -7,2 C 1,6 km/h (1 Bft)
18.01.2016 22:25 -7,2 C 90 % 1019,2 hPa 0,0 l/m 0,0 km/h (0 Bft) NO 51 0 min 0,000 mm 0,0 UV-I 0 W/m -8,6 C -7,2 C 1,6 km/h (1 Bft)
18.01.2016 22:30 -7,2 C 91 % 1019,1 hPa 0,0 l/m 0,1 km/h (0 Bft) NO 51 0 min 0,000 mm 0,0 UV-I 0 W/m -8,4 C -7,2 C 1,6 km/h (1 Bft)
18.01.2016 22:35 -7,2 C 90 % 1019,1 hPa 0,0 l/m 0,0 km/h (0 Bft) NO 51 0 min 0,000 mm 0,0 UV-I 0 W/m -8,6 C -7,2 C 1,6 km/h (1 Bft)
18.01.2016 22:40 -7,2 C 90 % 1019,0 hPa 0,0 l/m 0,0 km/h (0 Bft) NO 51 0 min 0,000 mm 0,0 UV-I 0 W/m -8,6 C -7,2 C 0,0 km/h (0 Bft)
18.01.2016 22:45 -7,2 C 90 % 1018,9 hPa 0,0 l/m 0,0 km/h (0 Bft) NO 51 0 min 0,000 mm 0,0 UV-I 0 W/m -8,6 C -7,2 C 0,0 km/h (0 Bft)
18.01.2016 22:50 -7,3 C 90 % 1018,9 hPa 0,0 l/m 0,0 km/h (0 Bft) NO 51 0 min 0,000 mm 0,0 UV-I 0 W/m -8,7 C -7,3 C 0,0 km/h (0 Bft)
18.01.2016 22:55 -7,3 C 90 % 1018,9 hPa 0,0 l/m 0,0 km/h (0 Bft) NO 51 0 min 0,000 mm 0,0 UV-I 0 W/m -8,7 C -7,3 C 0,0 km/h (0 Bft)
18.01.2016 23:00 -7,4 C 90 % 1018,9 hPa 0,0 l/m 0,0 km/h (0 Bft) NO 51 0 min 0,000 mm 0,0 UV-I 0 W/m -8,8 C -7,4 C 0,0 km/h (0 Bft)
18.01.2016 23:05 -7,4 C 90 % 1018,9 hPa 0,0 l/m 0,0 km/h (0 Bft) NO 51 0 min 0,000 mm 0,0 UV-I 0 W/m -8,8 C -7,4 C 0,0 km/h (0 Bft)
18.01.2016 23:10 -7,5 C 90 % 1018,8 hPa 0,0 l/m 0,0 km/h (0 Bft) NO 51 0 min 0,000 mm 0,0 UV-I 0 W/m -8,8 C -7,5 C 0,0 km/h (0 Bft)
18.01.2016 23:15 -7,6 C 89 % 1018,9 hPa 0,0 l/m 0,0 km/h (0 Bft) NO 51 0 min 0,000 mm 0,0 UV-I 0 W/m -9,1 C -7,6 C 0,0 km/h (0 Bft)
18.01.2016 23:20 -7,7 C 89 % 1018,9 hPa 0,0 l/m 0,0 km/h (0 Bft) NO 51 0 min 0,000 mm 0,0 UV-I 0 W/m -9,2 C -7,7 C 0,0 km/h (0 Bft)
18.01.2016 23:25 -7,8 C 89 % 1018,8 hPa 0,0 l/m 0,0 km/h (0 Bft) NO 51 0 min 0,000 mm 0,0 UV-I 0 W/m -9,3 C -7,8 C 0,0 km/h (0 Bft)
18.01.2016 23:30 -8,0 C 90 % 1018,8 hPa 0,0 l/m 0,0 km/h (0 Bft) NO 51 0 min 0,000 mm 0,0 UV-I 0 W/m -9,3 C -8,0 C 0,0 km/h (0 Bft)
18.01.2016 23:35 -8,1 C 90 % 1018,8 hPa 0,0 l/m 0,0 km/h (0 Bft) NO 51 0 min 0,000 mm 0,0 UV-I 0 W/m -9,4 C -8,1 C 0,0 km/h (0 Bft)
18.01.2016 23:40 -8,2 C 90 % 1018,8 hPa 0,0 l/m 0,0 km/h (0 Bft) NO 51 0 min 0,000 mm 0,0 UV-I 0 W/m -9,5 C -8,2 C 1,6 km/h (1 Bft)
18.01.2016 23:45 -8,2 C 90 % 1018,7 hPa 0,0 l/m 0,0 km/h (0 Bft) NO 51 0 min 0,000 mm 0,0 UV-I 0 W/m -9,5 C -8,2 C 0,0 km/h (0 Bft)
18.01.2016 23:50 -8,3 C 90 % 1018,7 hPa 0,0 l/m 0,0 km/h (0 Bft) NO 51 0 min 0,000 mm 0,0 UV-I 0 W/m -9,6 C -8,3 C 0,0 km/h (0 Bft)
18.01.2016 23:55 -8,4 C 90 % 1018,7 hPa 0,0 l/m 0,0 km/h (0 Bft) NO 51 0 min 0,000 mm 0,0 UV-I 0 W/m -9,7 C -8,4 C 0,0 km/h (0 Bft)
_ Min-Zeit 08:50 15:25 23:45 - 00:00 - - - - - - 08:50 08:50 00:00
Minimum _ -10,7 C 78 % 1018,7 hPa - 0,0 km/h (0 Bft) - - - - - - -12,0 C -10,7 C 0,0 km/h (0 Bft)
_ Max-Zeit 15:20 09:25 00:10 00:00 13:00 - - 09:10 12:00 11:45 13:45 13:50 15:10 13:00
Maximum _ -2,0 C 93 % 1026,3 hPa 0,0 l/m 5,9 km/h
NO (2 Bft)
- - 5 min 0,102 mm 0,8 UV-I 412 W/m -5,0 C -2,1 C 14,5 km/h
O-NO (3 Bft)
Durchschnitt _ -6,4 C 88 % 1022,0 hPa #0,0 l/m 0,7 km/h (0 Bft) O-NO - #7:05 h #0,508 mm 0,7 UV-I 211 W/m -8,1 C -6,4 C 2,2 km/h (1 Bft)